Location: Caltech
(34.1382°N, 118.1253°W)
Time: 03:59:15
(UTC-08:00)

Transit 2A - Visible Passes

Search period start: 23 November 2014 00:00
Search period end: 03 December 2014 00:00
Orbit: 596 x 966 km, 66.7° (Epoch: 23 November)

Date Brightness Start Highest point End Pass type
(mag) Time Alt. Az. Time Alt. Az. Time Alt. Az.
23 Nov 7.4 04:18:38 21° N 04:22:20 43° ENE 04:28:18 10° SE visible
23 Nov 7.4 06:00:21 10° NW 06:05:24 28° WSW 06:10:37 10° SSW visible
23 Nov 6.9 18:53:54 10° SSW 18:56:10 30° S 18:56:10 30° S visible
24 Nov 7.9 03:46:47 26° NNE 03:48:37 31° NE 03:54:08 10° ESE visible
24 Nov 6.9 05:27:23 15° NW 05:31:56 40° WSW 05:37:47 10° S visible
24 Nov 6.1 18:20:38 10° S 18:24:28 41° ESE 18:24:28 41° ESE visible
25 Nov 8.3 03:15:02 23° NE 03:15:02 23° NE 03:19:39 10° ESE visible
25 Nov 6.5 04:55:37 32° NW 04:58:26 58° WSW 05:04:38 10° S visible
25 Nov 6.7 17:47:42 10° SSE 17:51:22 26° ESE 17:52:44 22° E visible
25 Nov 7.8 19:30:36 10° WSW 19:33:20 24° WNW 19:33:20 24° WNW visible
26 Nov 9.0 02:43:21 14° ENE 02:43:21 14° ENE 02:44:47 10° E visible
26 Nov 6.3 04:23:57 66° NW 04:24:53 83° WSW 04:31:14 10° SSE visible
26 Nov 8.2 06:06:38 10° W 06:07:23 10° WSW 06:08:08 10° WSW visible
26 Nov 7.3 17:15:16 10° SE 17:17:59 16° ESE 17:20:49 10° ENE visible
26 Nov 6.8 18:56:28 10° SW 19:00:41 40° WNW 19:01:31 36° NNW visible
27 Nov 6.8 03:52:20 59° ESE 03:52:20 59° ESE 03:57:37 10° SSE visible
27 Nov 7.8 05:32:57 16° W 05:34:02 16° WSW 05:37:45 10° SW visible
27 Nov 6.0 18:22:36 10° SW 18:27:01 63° WNW 18:29:38 26° NNE visible
28 Nov 8.1 03:20:46 27° ESE 03:20:46 27° ESE 03:23:46 10° SE visible
28 Nov 7.6 05:01:23 24° WSW 05:01:23 24° WSW 05:05:33 10° SSW visible
28 Nov 5.6 17:49:00 10° SSW 17:53:26 81° ESE 17:57:40 14° NNE visible
28 Nov 8.6 19:36:10 10° WNW 19:37:25 11° NW 19:38:14 11° NW visible
29 Nov 9.1 02:49:13 12° ESE 02:49:13 12° ESE 02:49:40 10° ESE visible
29 Nov 7.7 04:29:50 25° SSW 04:29:50 25° SSW 04:32:50 10° S visible
29 Nov 5.9 17:15:38 10° S 17:19:55 49° ESE 17:24:35 10° NE visible
29 Nov 8.3 19:00:38 10° W 19:03:31 16° NW 19:06:10 11° NNW visible
30 Nov 8.3 03:58:16 18° S 03:58:16 18° S 03:59:47 10° S visible
30 Nov 7.8 18:25:59 10° WSW 18:29:40 23° NW 18:33:38 10° N visible
01 Dec 7.2 17:51:45 10° WSW 17:55:54 35° WNW 18:00:26 10° N visible
02 Dec 6.4 17:17:48 10° SW 17:22:12 54° WNW 17:27:03 10° NNE visible
